Weather History for VAAH - December, 2011

Change the Weather History Date:

Wednesday, December 28, 2011

  Actual Average Record
Temperature  
Mean Temperature 68 °F -  
Max Temperature 80 °F 78 °F 89 °F (2010)
Min Temperature 56 °F 53 °F 46 °F (1998)
Cooling Degree Days 3    
Growing Degree Days 18 (Base 50)    
Moisture  
Dew Point 53 °F    
Average Humidity 56    
Maximum Humidity 77    
Minimum Humidity 27    
Precipitation  
Precipitation 0.00 in 0.00 in - ()
Sea Level Pressure  
Sea Level Pressure 29.96 in    
Wind  
Wind Speed 3 mph ()    
Max Wind Speed 9 mph    
Max Gust Speed -    
Visibility 2.1 miles    
Events      
Averages and records for this station are not official NWS values.
T = Trace of Precipitation, MM = Missing Value Source: Averaged Metar Reports

Daily Weather History Graph

Daily Weather History Graph

Search for Another Location

Airport or City:

Trip Planner

Search our weather history database for the weather conditions in past years. The results will help you decide how hot, cold, wet, or windy it might be!

Date:

Astronomy

Dec. 28, 2011 Rise Set
Actual Time 7:18 AM IST 6:02 PM IST
Civil Twilight 6:54 AM IST 6:27 PM IST
Nautical Twilight 6:26 AM IST 6:55 PM IST
Astronomical Twilight 5:58 AM IST 7:22 PM IST
Moon 9:54 AM IST (12/28) 9:43 PM IST (12/28)
Length of Visible Light 11h 32m
Length of Day
10h 43m
Waxing Crescent, 14% of the Moon is Illuminated
Dec 28
Waxing Crescent
Jan 1
First Quarter
Jan 9
Full
Jan 16
Last Quarter
Jan 23
New

Hourly Weather History & Observations

Time (IST) Temp. Dew Point Humidity Pressure Visibility Wind Dir Wind Speed Gust Speed Precip Events Conditions
12:10 AM 64.4 °F 53.6 °F 68% 29.95 in 2.2 mi NNW 3.5 mph - N/A   Haze
12:40 AM 62.6 °F 55.4 °F 77% 29.95 in - Variable 2.3 mph - N/A   Haze
1:10 AM 62.6 °F 53.6 °F 72% 29.92 in - Variable 2.3 mph - N/A   Haze
1:40 AM 62.6 °F 51.8 °F 68% 29.92 in - Variable 2.3 mph - N/A   Haze
2:10 AM 60.8 °F 51.8 °F 72% 29.92 in - Variable 2.3 mph - N/A   Haze
2:30 AM 56 °F 48 °F 68% 29.94 in 1 mi Calm Calm - -   Haze
2:40 AM 60.8 °F 51.8 °F 72% 29.92 in - Variable 2.3 mph - N/A   Haze
3:40 AM 60.8 °F 53.6 °F 77% 29.92 in 1.9 mi NNE 3.5 mph - N/A   Haze
4:10 AM 59.0 °F 51.8 °F 77% 29.92 in 1.9 mi NE 3.5 mph - N/A   Haze
5:10 AM 60.8 °F 51.8 °F 72% 29.92 in 1.6 mi ENE 4.6 mph - N/A   Haze
5:30 AM 59 °F 50 °F 64% 29.94 in 1 mi ENE 3.5 mph - -   Haze
5:40 AM 62.6 °F 51.8 °F 68% 29.92 in 1.6 mi East 4.6 mph - N/A   Haze
6:10 AM 62.6 °F 53.6 °F 72% 29.95 in 1.6 mi East 4.6 mph - N/A   Haze
6:40 AM 62.6 °F 53.6 °F 72% 29.95 in 1.4 mi East 3.5 mph - N/A   Haze
7:40 AM 60.8 °F 51.8 °F 72% 29.98 in 1.2 mi East 4.6 mph - N/A   Haze
9:40 AM 71.6 °F 51.8 °F 50% 30.04 in 1.6 mi East 6.9 mph - N/A   Smoke
10:10 AM 73.4 °F 50.0 °F 44% 30.04 in 1.6 mi East 1.2 mph - N/A   Smoke
11:10 AM 75.2 °F 50.0 °F 41% 30.01 in 1.9 mi East 6.9 mph - N/A   Smoke
11:30 AM 74 °F 50 °F 32% 30.02 in 2 mi NNE 4.6 mph - -   Smoke
11:40 AM 77.0 °F 50.0 °F 39% 30.01 in 1.9 mi East 9.2 mph - N/A   Smoke
12:40 PM 78.8 °F 51.8 °F 39% 29.98 in 2.2 mi NE 9.2 mph - N/A   Smoke
1:10 PM 80.6 °F 51.8 °F 37% 29.98 in 2.2 mi ENE 6.9 mph - N/A   Smoke
1:40 PM 80.6 °F 50.0 °F 34% 29.95 in 2.2 mi NE 4.6 mph - N/A   Smoke
2:10 PM 80.6 °F 50.0 °F 34% 29.95 in 2.2 mi East 6.9 mph - N/A   Smoke
2:30 PM 80 °F 52 °F 27% 29.94 in 2 mi North 5.8 mph - -  
2:40 PM 82.4 °F 50.0 °F 32% 29.92 in 2.2 mi NE 6.9 mph - N/A   Smoke
4:10 PM 82.4 °F 51.8 °F 35% 29.92 in 3.1 mi ENE 8.1 mph - N/A   Smoke
4:40 PM 82.4 °F 51.8 °F 35% 29.92 in 3.1 mi NNE 6.9 mph - N/A   Smoke
5:10 PM 80.6 °F 50.0 °F 34% 29.92 in 3.1 mi ENE 5.8 mph - N/A   Smoke
5:30 PM 78 °F 53 °F 31% 29.93 in 2 mi North 5.8 mph - -  
6:10 PM 78.8 °F 51.8 °F 39% 29.95 in 2.5 mi NE 6.9 mph - N/A   Smoke
6:40 PM 77.0 °F 51.8 °F 41% 29.95 in 2.5 mi NE 5.8 mph - N/A   Smoke
7:10 PM 73.4 °F 53.6 °F 50% 29.95 in 2.5 mi NNE 4.6 mph - N/A   Smoke
7:40 PM 71.6 °F 55.4 °F 57% 29.98 in 2.5 mi North 4.6 mph - N/A   Smoke
8:10 PM 71.6 °F 57.2 °F 60% 29.98 in 2.5 mi NNE 3.5 mph - N/A   Haze
8:30 PM 65 °F 54 °F 58% 29.99 in 1 mi Calm Calm - -   Haze
8:40 PM 71.6 °F 59.0 °F 64% 29.98 in 2.5 mi Calm Calm - N/A   Smoke
9:10 PM 68.0 °F 55.4 °F 64% 29.98 in 2.5 mi Calm Calm - N/A   Haze
9:40 PM 68.0 °F 55.4 °F 64% 29.98 in 2.5 mi Calm Calm - N/A   Haze
10:10 PM 68.0 °F 59.0 °F 73% 29.98 in 2.5 mi Calm Calm - N/A   Haze
10:40 PM 66.2 °F 57.2 °F 73% 29.98 in 2.5 mi Calm Calm - N/A   Haze
11:10 PM 64.4 °F 55.4 °F 73% 29.98 in 2.5 mi Calm Calm - N/A   Haze
11:30 PM 62 °F 54 °F 69% 30.00 in 1 mi NNW 2.3 mph - -   Haze
11:40 PM 66.2 °F 57.2 °F 73% 30.01 in 2.5 mi Calm Calm - N/A   Haze